[[{"header":{"parameterUnit":"m.s-1","parameterCategory":1,"la1":30.2991,"la2":30.254,"lo1":-89.0895,"lo2":-89.0444,"dy":0.0017,"dx":0.0017,"nx":28,"ny":28,"refTime":"2024-02-16T03:00:00:Z","depth":0,"parameterNumber":2,"parameterNumberName":"U-component_of_WINDS"},"data":[0,0,0,0,0,0,0,0,0,0,0,0,0,0,0,0,0,0,0,0,0,0,0,0,0,0,0,0,0,0,0,0,0,0,0,0,0,0,0,0,0,0,0,0,0,0,0,0,0,0,0,0,0,0,0,0,0,0,0.2341,0.2341,0,0.2371,0.2371,0.2372,0.2367,0.2366,0.2366,0.2365,0.2398,0.2399,0.2401,0,0,0,0,0,0,0,0,0,0,0,0,0,0.228,0.2281,0.2341,0.2341,0.2341,0.2371,0.2371,0.2372,0.2367,0.2366,0.2366,0.2365,0.2397,0.2399,0.2401,0,0,0,0,0,0,0,0,0,0,0,0,0,0.2308,0.2281,0.2341,0.2343,0.2343,0.2371,0.2371,0.2372,0.2367,0.2366,0.2366,0.2365,0.2397,0.2399,0.2401,0.2429,0,0,0.2407,0.2408,0,0,0,0,0,0,0,0,0.2306,0.231,0.2342,0.2342,0.2343,0.2364,0.2362,0.2391,0.2367,0.2358,0.2365,0.2364,0.2387,0.239,0.2398,0.2431,0.2432,0.2407,0.2409,0.2409,0.241,0,0,0,0,0,0,0,0.2304,0.2309,0.2353,0.2342,0.2343,0.2342,0.2345,0.2367,0.2377,0.2359,0.2358,0.2362,0.2388,0.2396,0.2398,0.2433,0.2407,0.2409,0.241,0.2411,0.249,0.2491,0,0,0,0,0,0,0.2302,0.2307,0.2352,0.2354,0.2322,0.2344,0.2347,0.2358,0.2377,0.2379,0.2363,0.2362,0.2393,0.2396,0.24,0.2434,0.2409,0.2411,0.2412,0.2489,0.249,0.2491,0,0,0,0,0,0,0.23,0.2306,0.235,0.233,0.2336,0.2346,0.2358,0.2359,0.2367,0.2379,0.2381,0.2369,0.2392,0.2397,0.2422,0.2435,0.2412,0.2414,0.2488,0.2489,0.2491,0.2502,0,0,0,0,0,0,0.2298,0.2305,0.2316,0.233,0.2337,0.2372,0.2359,0.236,0.2371,0.237,0.2386,0.2388,0.2392,0.2419,0.2424,0.2437,0.2416,0.2487,0.2489,0.249,0.2501,0.2504,0.2506,0,0,0,0,0,0.2296,0.2318,0.2316,0.2322,0.235,0.2373,0.2376,0.238,0.2372,0.2383,0.239,0.2387,0.2432,0.2421,0.2427,0.2441,0.2486,0.2488,0.249,0.2499,0.2503,0.2506,0,0,0,0,0,0,0.2305,0.232,0.2318,0.2345,0.2358,0.2372,0.2386,0.2384,0.2399,0.2398,0.2402,0.2406,0.2431,0.2438,0.2426,0.2469,0.2458,0.2461,0.2463,0.2467,0.247,0.2468,0.2417,0,0,0,0,0,0.231,0.2327,0.2339,0.2362,0.2368,0.2376,0.2386,0.2387,0.24,0.2406,0.2415,0.2428,0.2445,0.2457,0.2473,0.2502,0.2505,0.2514,0.2517,0.2519,0.2522,0.2538,0.2542,0.2497,0.2497,0.2497,0,0,0.2321,0.2331,0.2342,0.2364,0.2374,0.2391,0.238,0.2399,0.2412,0.2409,0.2433,0.244,0.2455,0.2482,0.2494,0.2489,0.2535,0.2522,0.2523,0.2525,0.254,0.2544,0.2548,0.2499,0.2499,0.2498,0,0,0.235,0.2359,0.2379,0.2389,0.2403,0.2408,0.2413,0.2427,0.2432,0.2456,0.2453,0.2469,0.2498,0.2509,0.2518,0.255,0.2548,0.2555,0.257,0.2585,0.2589,0.2592,0.2604,0.2608,0.2558,0.2558,0.2558,0,0.2362,0.2387,0.239,0.2408,0.2418,0.2415,0.2436,0.2445,0.2465,0.2472,0.2465,0.2502,0.2512,0.2541,0.2548,0.2556,0.2562,0.2554,0.2588,0.2591,0.2594,0.2605,0.261,0.2559,0.2559,0.2559,0.2559,0,0.2401,0.2419,0.2433,0.2451,0.2462,0.2482,0.2488,0.2499,0.2499,0.2505,0.253,0.2541,0.256,0.2567,0.2568,0.2596,0.2592,0.2587,0.2576,0.2599,0.261,0.2614,0.256,0.256,0.2559,0.2559,0,0,0.2437,0.2455,0.2461,0.2469,0.2484,0.2498,0.2517,0.2535,0.2545,0.2558,0.2574,0.2599,0.2594,0.2604,0.2606,0.262,0.2644,0.2613,0.2613,0.2618,0.2676,0.268,0.2685,0.2642,0.2643,0.2644,0.2675,0,0.2467,0.2501,0.2503,0.2534,0.255,0.2547,0.2564,0.2575,0.2581,0.2596,0.2602,0.2619,0.2612,0.2618,0.2631,0.2638,0.2656,0.2636,0.2658,0.2659,0.2655,0.269,0.2695,0.2724,0.2679,0.268,0.268,0,0.2507,0.2521,0.2552,0.2565,0.2572,0.2587,0.2603,0.2617,0.263,0.2633,0.2645,0.2645,0.2665,0.2653,0.268,0.2667,0.2676,0.2681,0.2682,0.2685,0.2671,0.2694,0.2733,0.2737,0.2687,0.2686,0.2686,0,0.253,0.2556,0.2579,0.2586,0.2601,0.2612,0.2619,0.2631,0.2641,0.2655,0.2662,0.2678,0.2688,0.27,0.2705,0.2696,0.2733,0.2721,0.2736,0.2736,0.2744,0.2744,0.2785,0.275,0.275,0.275,0.275,0,0.2563,0.2583,0.2589,0.2603,0.2625,0.2628,0.265,0.2656,0.2667,0.2682,0.2681,0.2695,0.27,0.2715,0.2719,0.2741,0.2746,0.2749,0.275,0.2749,0.2749,0.2756,0.2754,0.2751,0.2751,0.275,0.275,0,0.2593,0.2598,0.2622,0.2635,0.2638,0.2654,0.2665,0.2678,0.2683,0.2702,0.2707,0.2715,0.2733,0.2739,0.276,0.2763,0.2789,0.2788,0.2785,0.2785,0.28,0.2798,0.2847,0.2854,0.2814,0.2814,0.2814,0,0.2615,0.263,0.2643,0.2653,0.266,0.2676,0.2686,0.269,0.27,0.2716,0.2727,0.2745,0.2759,0.2788,0.2796,0.2812,0.2812,0.2828,0.2815,0.2813,0.2812,0.2812,0.2813,0.2831,0.2831,0.2831,0.2832,0,0.2652,0.2653,0.2668,0.2683,0.2695,0.2708,0.272,0.2728,0.2733,0.2745,0.2763,0.2774,0.2795,0.2813,0.283,0.2837,0.2835,0.2836,0.284,0.284,0.2837,0.2839,0.2792,0.2835,0.2834,0.2834,0.2834,0.2834,0.2678,0.2691,0.2703,0.2719,0.2728,0.2739,0.2752,0.2758,0.2773,0.2791,0.2792,0.2811,0.2824,0.2846,0.2854,0.2869,0.2865,0.2871,0.2873,0.2875,0.2876,0.2835,0.2872,0.2872,0.2872,0.2872,0.2872,0,0.2716,0.2723,0.2738,0.2754,0.2767,0.2763,0.2776,0.2787,0.2804,0.2815,0.2829,0.2849,0.2866,0.2875,0.2892,0.2902,0.2902,0.2907,0.2906,0.2908,0.2879,0.2873,0.2907,0.2907,0.2907,0.2907,0.2907,0.2907,0.2737,0.2759,0.2761,0.2788,0.2795,0.2813,0.2821,0.2831,0.284,0.2863,0.2876,0.2882,0.2892,0.291,0.2925,0.2927,0.2934,0.2939,0.2941,0.2914,0.291,0.2907,0.2902,0.294,0.294,0.2968,0.2969,0.2969]},{"header":{"parameterUnit":"m.s-1","parameterCategory":1,"la1":30.2991,"la2":30.254,"lo1":-89.0895,"lo2":-89.0444,"dy":0.0017,"dx":0.0017,"nx":28,"ny":28,"refTime":"2024-02-16T03:00:00:Z","depth":0,"parameterNumber":3,"parameterNumberName":"V-component_of_WINDS"},"data":[0,0,0,0,0,0,0,0,0,0,0,0,0,0,0,0,0,0,0,0,0,0,0,0,0,0,0,0,0,0,0,0,0,0,0,0,0,0,0,0,0,0,0,0,0,0,0,0,0,0,0,0,0,0,0,0,0,0,-0.3487,-0.3488,0,-0.3512,-0.3512,-0.3513,-0.3507,-0.3506,-0.3506,-0.3506,-0.3534,-0.3536,-0.3537,0,0,0,0,0,0,0,0,0,0,0,0,0,-0.3439,-0.344,-0.3487,-0.3488,-0.3488,-0.3512,-0.3512,-0.3513,-0.3507,-0.3506,-0.3506,-0.3505,-0.3534,-0.3535,-0.3537,0,0,0,0,0,0,0,0,0,0,0,0,0,-0.3462,-0.3441,-0.3487,-0.3488,-0.3488,-0.3512,-0.3513,-0.3513,-0.3507,-0.3506,-0.3506,-0.3505,-0.3534,-0.3535,-0.3537,-0.3563,0,0,-0.3543,-0.3544,0,0,0,0,0,0,0,0,-0.3461,-0.3464,-0.3488,-0.3488,-0.3488,-0.3506,-0.3506,-0.353,-0.3507,-0.35,-0.3506,-0.3505,-0.3526,-0.3528,-0.3534,-0.3564,-0.3566,-0.3543,-0.3544,-0.3545,-0.3545,0,0,0,0,0,0,0,-0.3459,-0.3463,-0.3497,-0.3488,-0.3488,-0.3488,-0.3491,-0.3511,-0.3517,-0.3501,-0.35,-0.3503,-0.3526,-0.3533,-0.3535,-0.3566,-0.3543,-0.3544,-0.3546,-0.3546,-0.3621,-0.3621,0,0,0,0,0,0,-0.3457,-0.3461,-0.3497,-0.3498,-0.3472,-0.349,-0.3493,-0.3501,-0.3517,-0.3518,-0.3504,-0.3503,-0.353,-0.3533,-0.3536,-0.3568,-0.3545,-0.3546,-0.3548,-0.362,-0.3621,-0.3622,0,0,0,0,0,0,-0.3456,-0.346,-0.3496,-0.348,-0.3484,-0.3491,-0.3501,-0.3502,-0.3509,-0.3519,-0.352,-0.3509,-0.3529,-0.3534,-0.3557,-0.3569,-0.3547,-0.3549,-0.3619,-0.362,-0.3621,-0.3633,0,0,0,0,0,0,-0.3454,-0.346,-0.3468,-0.348,-0.3485,-0.3514,-0.3502,-0.3503,-0.3511,-0.351,-0.3524,-0.3526,-0.3529,-0.3554,-0.3558,-0.3572,-0.355,-0.3618,-0.3619,-0.3621,-0.3631,-0.3634,-0.3637,0,0,0,0,0,-0.3453,-0.3471,-0.3469,-0.3473,-0.3496,-0.3515,-0.3518,-0.352,-0.3512,-0.3522,-0.3529,-0.3526,-0.3567,-0.3556,-0.3561,-0.3575,-0.3617,-0.3619,-0.3621,-0.363,-0.3634,-0.3637,0,0,0,0,0,0,-0.3461,-0.3472,-0.347,-0.3492,-0.3503,-0.3514,-0.3526,-0.3524,-0.3537,-0.3536,-0.3539,-0.3543,-0.3566,-0.3573,-0.3561,-0.3602,-0.3591,-0.3594,-0.3597,-0.36,-0.3603,-0.3601,-0.3552,0,0,0,0,0,-0.3466,-0.3479,-0.3488,-0.3507,-0.3512,-0.3518,-0.3527,-0.3527,-0.3539,-0.3543,-0.3552,-0.3564,-0.358,-0.3591,-0.3606,-0.3632,-0.3636,-0.3645,-0.3648,-0.365,-0.3653,-0.3669,-0.3673,-0.3628,-0.3628,-0.3628,0,0,-0.3475,-0.3483,-0.3491,-0.3509,-0.3517,-0.3532,-0.3522,-0.3538,-0.355,-0.3546,-0.3568,-0.3575,-0.3589,-0.3615,-0.3626,-0.3621,-0.3666,-0.3652,-0.3654,-0.3656,-0.3671,-0.3676,-0.3679,-0.363,-0.3629,-0.3629,0,0,-0.35,-0.3506,-0.3523,-0.3532,-0.3544,-0.3548,-0.3552,-0.3564,-0.3568,-0.359,-0.3589,-0.3604,-0.363,-0.3641,-0.365,-0.3681,-0.3679,-0.3686,-0.37,-0.3716,-0.372,-0.3723,-0.3735,-0.374,-0.3688,-0.3688,-0.3688,0,-0.351,-0.3531,-0.3533,-0.3549,-0.3558,-0.3555,-0.3573,-0.3582,-0.3599,-0.3606,-0.36,-0.3634,-0.3644,-0.3672,-0.368,-0.3687,-0.3693,-0.3684,-0.3719,-0.3722,-0.3725,-0.3737,-0.3742,-0.3689,-0.3689,-0.3689,-0.3689,0,-0.3544,-0.3559,-0.3572,-0.3587,-0.3598,-0.3615,-0.3621,-0.3631,-0.3632,-0.3637,-0.3661,-0.3672,-0.369,-0.3697,-0.3698,-0.3727,-0.3723,-0.3718,-0.3707,-0.373,-0.3742,-0.3746,-0.369,-0.369,-0.369,-0.369,0,0,-0.3574,-0.3591,-0.3596,-0.3603,-0.3618,-0.363,-0.3648,-0.3665,-0.3675,-0.3687,-0.3704,-0.3727,-0.3723,-0.3734,-0.3736,-0.375,-0.3775,-0.3743,-0.3744,-0.375,-0.3809,-0.3813,-0.3818,-0.3774,-0.3775,-0.3776,-0.3808,0,-0.3601,-0.3631,-0.3633,-0.3662,-0.3677,-0.3675,-0.3691,-0.3703,-0.3709,-0.3723,-0.3731,-0.3748,-0.374,-0.3747,-0.3761,-0.3769,-0.3787,-0.3767,-0.3791,-0.3792,-0.3788,-0.3824,-0.3828,-0.3858,-0.3813,-0.3813,-0.3814,0,-0.3635,-0.3648,-0.3677,-0.3691,-0.3697,-0.3711,-0.3728,-0.3742,-0.3756,-0.3759,-0.3771,-0.3772,-0.3793,-0.3782,-0.3811,-0.3797,-0.3808,-0.3814,-0.3815,-0.3818,-0.3804,-0.3828,-0.3867,-0.3872,-0.3821,-0.382,-0.382,0,-0.3655,-0.368,-0.3701,-0.3708,-0.3723,-0.3734,-0.3741,-0.3754,-0.3765,-0.378,-0.3787,-0.3805,-0.3815,-0.383,-0.3836,-0.3827,-0.3866,-0.3855,-0.3871,-0.3871,-0.3879,-0.3879,-0.3922,-0.3885,-0.3885,-0.3885,-0.3885,0,-0.3684,-0.3703,-0.371,-0.3723,-0.3744,-0.3748,-0.377,-0.3777,-0.3789,-0.3805,-0.3805,-0.382,-0.3827,-0.3845,-0.385,-0.3875,-0.3879,-0.3884,-0.3885,-0.3884,-0.3884,-0.3891,-0.3889,-0.3886,-0.3886,-0.3886,-0.3886,0,-0.371,-0.3715,-0.3738,-0.3752,-0.3756,-0.3771,-0.3783,-0.3797,-0.3803,-0.3824,-0.3829,-0.3839,-0.3859,-0.3867,-0.3892,-0.3896,-0.3925,-0.3924,-0.392,-0.392,-0.3937,-0.3935,-0.3986,-0.3994,-0.3952,-0.3952,-0.3953,0,-0.3728,-0.3742,-0.3757,-0.3767,-0.3775,-0.3791,-0.3802,-0.3807,-0.3819,-0.3836,-0.3849,-0.3868,-0.3885,-0.3917,-0.3928,-0.3948,-0.3948,-0.3965,-0.3951,-0.395,-0.395,-0.3949,-0.3951,-0.3967,-0.3968,-0.3968,-0.3968,0,-0.376,-0.3763,-0.3777,-0.3794,-0.3807,-0.382,-0.3833,-0.3842,-0.385,-0.3863,-0.3883,-0.3896,-0.3921,-0.3942,-0.3962,-0.3972,-0.3972,-0.3973,-0.3978,-0.3977,-0.3974,-0.3977,-0.3927,-0.3971,-0.3971,-0.3971,-0.3971,-0.3971,-0.3783,-0.3796,-0.3809,-0.3826,-0.3837,-0.3849,-0.3863,-0.3872,-0.3888,-0.3908,-0.3911,-0.3933,-0.3949,-0.3977,-0.3987,-0.4006,-0.4002,-0.4009,-0.4011,-0.4013,-0.4014,-0.3971,-0.401,-0.401,-0.401,-0.401,-0.401,0,-0.3816,-0.3825,-0.3841,-0.3859,-0.3873,-0.3871,-0.3886,-0.3898,-0.3917,-0.3932,-0.3948,-0.3972,-0.3992,-0.4005,-0.4027,-0.4039,-0.404,-0.4045,-0.4044,-0.4047,-0.4016,-0.401,-0.4044,-0.4044,-0.4044,-0.4044,-0.4044,-0.4044,-0.3835,-0.3857,-0.3862,-0.389,-0.3899,-0.392,-0.3929,-0.3941,-0.3953,-0.398,-0.3996,-0.4004,-0.4019,-0.4041,-0.4061,-0.4064,-0.4072,-0.4078,-0.4081,-0.4052,-0.4049,-0.4045,-0.404,-0.4079,-0.4079,-0.411,-0.411,-0.4111]}]]